Bismarck, ND

3:31 AM CST on December 14, 2017 (GMT -0600)
Bismarck Municipal

Weather History for KBIS - October, 2011

Change the Weather History Date:

Saturday, October 15, 2011

  Actual Average Record
Temperature  
Mean Temperature 38 °F 45 °F  
Max Temperature 47 °F 58 °F 83 °F (1953)
Min Temperature 29 °F 33 °F 18 °F (1966)
Degree Days  
Heating Degree Days 27 20  
Month to date heating degree days 137 249  
Since 1 July heating degree days 364 535  
Cooling Degree Days 0 0  
Month to date cooling degree days 14 0  
Year to date cooling degree days 425 519  
Moisture  
Dew Point 36 °F    
Average Humidity 83    
Maximum Humidity 100    
Minimum Humidity 65    
Precipitation  
Precipitation 0.04 in 0.04 in 0.79 in (1980)
Month to date precipitation 1.11 0.63  
Year to date precipitation 22.45 16.03  
Snow  
Snow 0.00 in - 2.80 in (1897)
Month to date snowfall 0.0  
Since 1 July snowfall 0.0  
Since 1 September snowfall 0.0  
Snow Depth 0.00 in    
Sea Level Pressure  
Sea Level Pressure 29.97 in    
Wind  
Wind Speed 3 mph (West)    
Max Wind Speed 12 mph    
Max Gust Speed 15 mph    
Visibility 10 miles    
Events Rain    
T = Trace of Precipitation, MM = Missing Value Source: NWS Daily Summary

Daily Weather History Graph

Daily Weather History Graph

Search for Another Location

Airport or City:

Trip Planner

Search our weather history database for the weather conditions in past years. The results will help you decide how hot, cold, wet, or windy it might be!

Date:

Astronomy

Oct. 15, 2011 Rise Set
Actual Time 8:00 AM CDT 6:56 PM CDT
Civil Twilight 7:29 AM CDT 7:26 PM CDT
Nautical Twilight 6:54 AM CDT 8:01 PM CDT
Astronomical Twilight 6:19 AM CDT 8:37 PM CDT
Moon 8:38 PM CDT (10/15) 11:41 AM CDT (10/15)
Length of Visible Light 11h 56m
Length of Day
10h 55m
Waning Gibbous, 89% of the Moon is Illuminated
Oct 15
Waning Gibbous
Oct 19
Last Quarter
Oct 26
New
Nov 2
First Quarter
Nov 10
Full

Hourly Weather History & Observations

Time (CDT) Temp. Windchill Dew Point Humidity Pressure Visibility Wind Dir Wind Speed Gust Speed Precip Events Conditions
12:52 AM 35.1 °F 30.1 °F 32.0 °F 89% 30.01 in 10.0 mi WSW 5.8 mph - N/A   Clear
1:52 AM 35.1 °F 32.2 °F 32.0 °F 89% 30.01 in 10.0 mi WNW 3.5 mph - N/A   Clear
2:52 AM 35.1 °F 32.2 °F 32.0 °F 89% 30.00 in 10.0 mi WSW 3.5 mph - N/A   Clear
3:52 AM 35.1 °F - 32.0 °F 89% 30.00 in 10.0 mi Calm Calm - N/A   Scattered Clouds
4:52 AM 33.1 °F - 30.0 °F 89% 29.99 in 10.0 mi Calm Calm - N/A   Scattered Clouds
5:52 AM 32.0 °F - 30.0 °F 92% 29.99 in 10.0 mi Calm Calm - N/A   Overcast
6:52 AM 30.9 °F - 30.0 °F 96% 29.98 in 10.0 mi Calm Calm - N/A   Overcast
7:52 AM 35.1 °F - 32.0 °F 89% 29.98 in 10.0 mi Calm Calm - N/A   Overcast
8:52 AM 37.4 °F - 35.6 °F 93% 29.92 in 8.0 mi Calm Calm - N/A   Overcast
9:52 AM 39.9 °F - 34.0 °F 79% 29.97 in 10.0 mi Calm Calm - N/A   Overcast
11:52 AM 44.1 °F - 34.0 °F 68% 29.96 in 10.0 mi Calm Calm - N/A   Overcast
12:52 PM 46.0 °F - 36.0 °F 68% 29.95 in 10.0 mi Calm Calm - N/A   Overcast
1:52 PM 44.1 °F - 39.0 °F 82% 29.96 in 7.0 mi Calm Calm - 0.01 in Rain Light Rain
2:52 PM 46.0 °F 43.9 °F 42.1 °F 86% 29.95 in 9.0 mi WSW 4.6 mph - 0.02 in Rain Light Rain
3:52 PM 46.9 °F - 39.9 °F 77% 29.94 in 10.0 mi WNW 4.6 mph - 0.00 in   Overcast
4:52 PM 46.0 °F 42.5 °F 39.9 °F 79% 29.94 in 10.0 mi NW 6.9 mph - 0.01 in Rain Light Rain
5:52 PM 46.0 °F 43.1 °F 41.0 °F 83% 29.95 in 10.0 mi West 5.8 mph - 0.00 in   Overcast
6:52 PM 44.6 °F 41.4 °F 41.0 °F 87% 29.90 in 10.0 mi West 5.8 mph - N/A   Overcast
7:52 PM 45.0 °F 41.2 °F 39.9 °F 82% 29.96 in 10.0 mi WNW 6.9 mph - N/A   Overcast
8:52 PM 43.0 °F 38.2 °F 39.0 °F 86% 29.97 in 10.0 mi WNW 8.1 mph - N/A   Mostly Cloudy
9:52 PM 41.0 °F 35.8 °F 37.0 °F 86% 29.98 in 10.0 mi West 8.1 mph - N/A   Clear
10:52 PM 39.0 °F 34.0 °F 36.0 °F 89% 29.99 in 10.0 mi WNW 6.9 mph - N/A   Clear
11:52 PM 37.9 °F 32.7 °F 36.0 °F 93% 29.99 in 10.0 mi WNW 6.9 mph - N/A   Clear